{"data":{"norad_id":56017,"epoch":"2026-05-24T19:06:00.150912Z","epoch_age_seconds":106745,"freshness":"FRESH","line1":"1 56017U 23042AH  26144.79583508  .00000325  00000+0  21345-4 0  9990","line2":"2 56017  43.0065 335.5316 0001802 269.2615  90.8031 15.27577201174670","mean_motion":15.27577201,"eccentricity":0.0001802,"inclination_deg":43.0065,"raan_deg":335.5316,"arg_perigee_deg":269.2615,"mean_anomaly_deg":90.8031,"bstar":2.1345e-5,"rev_number":17467,"period_min":94.266921439868,"perigee_km":481.82109002058,"apogee_km":484.29386451019,"semimajor_km":6861.1944772654,"source":"CELESTRAK","updated_at":"2026-05-25T13:38:17.928369Z"}}